User: anonymous   Login
Location: Unspecified
(0.0000°N, 0.0000°E)
Time: 09:43:25
(UTC+00:00)
Language:

OBJECT AA - Orbit

View from above orbital plane
View from above orbital plane
View from above satellite
View from above satellite

Ground track
Ground track

The orbit data is extracted from the following two-line orbital elements,

1 42849U 17042AA  18018.58068844 +.00000043 +00000-0 +95897-5 0  9992
2 42849 097.6084 286.8616 0007744 346.8887 013.2130 14.92127699028039
Epoch (UTC): 18 January 2018 13:56:11
Eccentricity: 0.0007744
inclination: 97.6084°
perigee height: 586 km
apogee height: 597 km
right ascension of ascending node: 286.8616°
argument of perigee: 346.8887°
revolutions per day: 14.92127699
mean anomaly at epoch: 13.2130°
orbit number at epoch: 2803

The dashed part of the orbit path shows where the satellite is in the earth's shadow,  

DLR